Weather Roundup
Issued by NWS

Home | Current Version | Previous Version | Graphics & Text | Print | Product List | Glossary Off
Versions: 1 2 3 4 5 6 7 8 9 10 11 12 13 14 15 16 17 18 19 20 21 22 23 24 25 26 27 28 29 30 31 32 33 34 35 36 37 38 39 40 41 42 43 44 45 46 47 48 49 50

000
NZUS93 KARX 270659
HRRWXR

CURRENT HOURLY OBSERVATIONS ACROSS
MUCH OF THE UPPER MISSISSIPPI VALLEY
NATIONAL WEATHER SERVICE LA CROSSE WI
200 AM CDT WED JUL 27 2016


...SOUTHEAST MINNESOTA...


CITY           SKY/WX    TMP DP  RH WIND       PRES   REMARKS
ROCHESTER      CLEAR     68  66  93 W5        30.02S
ROCHESTER/MAYO PTSUNNY   72  67  85 NW3       30.02S
WINONA         CLEAR     72  68  88 CALM      29.99F
AUSTIN         PTCLDY    70  64  83 CALM      30.01S
ALBERT LEA     PTCLDY    73  66  78 CALM      30.01S
DODGE CENTER   PTCLDY    68  64  88 CALM      30.01F
PRESTON        CLEAR     68  65  89 SW6       30.02F
OWATONNA       CLOUDY    70  66  88 CALM      30.00F
FARIBAULT      CLOUDY    70  68  94 CALM      30.00F
$$

...ELSEWHERE IN MINNESOTA...


CITY           SKY/WX    TMP DP  RH WIND       PRES   REMARKS
MINNEAPOLIS    CLOUDY    79  68  69 SW5       29.97F
INTNL FALLS    CLOUDY    68  58  70 N3        29.99F
DULUTH         TSTM      69  68  96 CALM      29.97S
RED WING       CLOUDY    70  66  88 CALM      29.97F
REDWOOD FALLS  CLOUDY    73  68  84 S5        29.97F
MANKATO        CLOUDY    73  66  78 S3        29.99S
WORTHINGTON    MOCLDY    70  66  87 S9        30.01F
FAIRMONT       CLOUDY    68  64  88 S6        29.98F
$$

...SOUTHWEST WISCONSIN...


CITY           SKY/WX    TMP DP  RH WIND       PRES   REMARKS
LA CROSSE      PTCLDY    72  70  93 CALM      29.99S
PRAIRIE DU CHI CLEAR     68  65  91 CALM      30.01S
BOSCOBEL       PTCLDY    66  65  96 CALM      30.01R FOG
LONE ROCK      PTCLDY    65  64  97 CALM      30.00F
PLATTEVILLE    CLEAR     70  67  91 CALM      30.02S
FORT MC COY    CLEAR     64  64  99 CALM      30.01F
MAUSTON-NEW LI SUNNY     68  66  96 CALM      30.00S
VIROQUA        FAIR      68  66  93 SW3       30.02F
WIS DELLS      NOT AVBL
$$

...ELSEWHERE IN WISCONSIN...


CITY           SKY/WX    TMP DP  RH WIND       PRES   REMARKS
MILWAUKEE      CLEAR     75  65  70 CALM      29.99S
MADISON        CLEAR     66  64  93 MISG      30.00F
GREEN BAY      CLEAR     72  70  93 W7        29.96S
EAU CLAIRE     NOT AVBL
BLACK RVR FLS  FAIR      65  65 100 CALM      30.00S FOG
MEDFORD        CLEAR     67  67 100 CALM      30.02S
WAUSAU         CLEAR     72  67  84 NW7       29.99S
WIS RAPIDS     MOCLDY    71  65  81 SW5       30.01F
MARSHFIELD     CLEAR     71  66  84 W3        30.01S
RICE LAKE      CLOUDY    68  65  89 CALM      30.01F
$$

...NORTHEAST IOWA...


CITY           SKY/WX    TMP DP  RH WIND       PRES   REMARKS
WATERLOO       CLEAR     65  63  93 CALM      30.00F
DUBUQUE        CLEAR     66  63  90 CALM      30.03S
DECORAH        CLEAR     68  66  94 CALM      30.01F
MASON CITY     PTCLDY    67  64  90 S5        30.03F
CHARLES CITY   CLEAR     68  68 100 S5        30.02F
OELWEIN        CLEAR     66  64  94 CALM      30.03S
$$

...ELSEWHERE IN IOWA...


CITY           SKY/WX    TMP DP  RH WIND       PRES   REMARKS
DES MOINES     CLOUDY    73  65  75 SE5       30.00F
IOWA CITY      CLEAR     68  65  90 CALM      30.01F
FORT DODGE     PTCLDY    68  64  88 S3        30.01F
MARSHALLTOWN   CLOUDY    66  64  93 CALM      30.01F
CEDAR RAPIDS   CLEAR     67  66  97 N3        30.01S
$$

...NORTHERN ILLINOIS...


CITY           SKY/WX    TMP DP  RH WIND       PRES   REMARKS
CHICAGO-OHARE  CLEAR     73  64  73 CALM      29.99F
CHICAGO-MIDWAY CLEAR     76  61  59 S3        29.99F
MOLINE         CLEAR     68  64  87 CALM      29.99F
ROCKFORD       CLEAR     69  65  86 S3        30.01F
PEORIA         CLEAR     72  70  93 CALM      30.00F
$$

NOTE: "FAIR" INDICATES FEW OR NO CLOUDS BELOW 12,000 FEET WITH NO
SIGNIFICANT WEATHER AND/OR OBSTRUCTIONS TO VISIBILITY. WIND
SPEEDS ARE IN MILES-PER-HOUR.




USA.gov is the U.S. government's official web portal to all federal, state and local government web resources and services.